• In Moldova, Republic
  • List of Countries
  • For 7 days
  • Water Temperature
  • Satellite Maps
  • Weather Map
  • Weather Widgets
  • user-avatar
    Login

    Hourly Weather Sumgayit

    Today, 23 September, Saturday

    Time Temperature Precipitation Wind Pressure Humidity
    00:00 +27°C° 0 mm 1 mps 739 mmHg 57%
    01:00 +26°C° 0 mm 1 mps 739 mmHg 58%
    02:00 +26°C° 0 mm 1 mps 739 mmHg 58%
    03:00 +25°C° 0 mm 1 mps 739 mmHg 60%
    04:00 +25°C° 0.2 mm 2 mps 739 mmHg 61%
    05:00 +25°C° 0.2 mm 3 mps 739 mmHg 62%
    06:00 +25°C° 0.2 mm 4 mps 740 mmHg 62%
    07:00 +26°C° 0.1 mm 4 mps 740 mmHg 58%
    08:00 +27°C° 0.1 mm 5 mps 740 mmHg 54%
    09:00 +28°C° 0.1 mm 5 mps 740 mmHg 51%
    10:00 +28°C° 0.1 mm 5 mps 741 mmHg 47%
    11:00 +29°C° 0.1 mm 6 mps 741 mmHg 44%
    12:00 +30°C° 0.1 mm 6 mps 741 mmHg 41%
    13:00 +30°C° 0 mm 7 mps 741 mmHg 41%
    14:00 +30°C° 0 mm 7 mps 741 mmHg 42%
    15:00 +31°C° 0 mm 8 mps 741 mmHg 42%
    16:00 +28°C° 0 mm 8 mps 741 mmHg 48%
    17:00 +27°C° 0 mm 9 mps 741 mmHg 54%
    18:00 +26°C° 0 mm 9 mps 741 mmHg 60%
    19:00 +24°C° 0 mm 9 mps 741 mmHg 63%
    20:00 +24°C° 0 mm 9 mps 741 mmHg 65%
    21:00 +23°C° 0 mm 9 mps 741 mmHg 68%
    22:00 +23°C° 0 mm 8 mps 741 mmHg 69%
    23:00 +22°C° 0 mm 8 mps 741 mmHg 70%

    Tomorrow, 24 September, Sunday

    Time Temperature Precipitation Wind Pressure Humidity
    00:00 +22°C° 0 mm 8 mps 742 mmHg 71%
    01:00 +22°C° 0 mm 8 mps 742 mmHg 72%
    02:00 +21°C° 0 mm 7 mps 742 mmHg 72%
    03:00 +21°C° 0 mm 7 mps 742 mmHg 73%
    04:00 +21°C° 0 mm 7 mps 742 mmHg 73%
    05:00 +21°C° 0 mm 6 mps 742 mmHg 74%
    06:00 +21°C° 0 mm 6 mps 742 mmHg 74%
    07:00 +22°C° 0 mm 6 mps 743 mmHg 68%
    08:00 +23°C° 0 mm 5 mps 743 mmHg 63%
    09:00 +25°C° 0 mm 5 mps 743 mmHg 57%
    10:00 +26°C° 0 mm 5 mps 743 mmHg 54%
    11:00 +26°C° 0 mm 5 mps 743 mmHg 50%
    12:00 +27°C° 0 mm 5 mps 743 mmHg 47%
    13:00 +27°C° 0 mm 6 mps 743 mmHg 48%
    14:00 +27°C° 0 mm 7 mps 743 mmHg 50%
    15:00 +27°C° 0 mm 7 mps 743 mmHg 52%
    16:00 +26°C° 0 mm 7 mps 743 mmHg 55%
    17:00 +24°C° 0 mm 7 mps 743 mmHg 59%
    18:00 +23°C° 0 mm 7 mps 743 mmHg 62%
    19:00 +23°C° 0 mm 7 mps 743 mmHg 60%
    20:00 +23°C° 0 mm 7 mps 743 mmHg 58%
    21:00 +23°C° 0 mm 6 mps 743 mmHg 56%
    22:00 +23°C° 0 mm 6 mps 743 mmHg 56%
    23:00 +23°C° 0 mm 5 mps 743 mmHg 56%

    Day after tomorrow, 25 September, Monday

    Time Temperature Precipitation Wind Pressure Humidity
    00:00 +23°C° 0 mm 5 mps 743 mmHg 56%
    01:00 +22°C° 0 mm 5 mps 743 mmHg 56%
    02:00 +22°C° 0 mm 4 mps 743 mmHg 57%
    03:00 +22°C° 0 mm 4 mps 743 mmHg 58%
    04:00 +22°C° 0 mm 4 mps 743 mmHg 59%
    05:00 +21°C° 0 mm 4 mps 743 mmHg 60%
    06:00 +21°C° 0 mm 4 mps 743 mmHg 61%
    07:00 +22°C° 0 mm 4 mps 743 mmHg 56%
    08:00 +23°C° 0 mm 5 mps 744 mmHg 51%
    09:00 +25°C° 0 mm 5 mps 744 mmHg 46%
    10:00 +26°C° 0 mm 6 mps 744 mmHg 43%
    11:00 +27°C° 0 mm 6 mps 744 mmHg 40%
    12:00 +28°C° 0 mm 7 mps 743 mmHg 37%
    13:00 +28°C° 0 mm 8 mps 743 mmHg 38%
    14:00 +28°C° 0 mm 10 mps 743 mmHg 38%
    15:00 +29°C° 0 mm 11 mps 743 mmHg 39%
    16:00 +27°C° 0 mm 11 mps 743 mmHg 43%
    17:00 +26°C° 0 mm 12 mps 743 mmHg 46%
    18:00 +24°C° 0 mm 12 mps 743 mmHg 50%
    19:00 +24°C° 0 mm 12 mps 743 mmHg 52%
    20:00 +23°C° 0 mm 12 mps 744 mmHg 54%
    21:00 +22°C° 0 mm 11 mps 744 mmHg 57%
    22:00 +22°C° 0 mm 11 mps 744 mmHg 58%
    23:00 +21°C° 0 mm 11 mps 744 mmHg 60%

    26 September, Tuesday

    Time Temperature Precipitation Wind Pressure Humidity
    00:00 +21°C° 0 mm 10 mps 744 mmHg 61%
    01:00 +19°C° 0 mm 10 mps 744 mmHg 63%
    02:00 +19°C° 0 mm 10 mps 744 mmHg 64%
    03:00 +19°C° 0 mm 10 mps 744 mmHg 66%
    04:00 +19°C° 0 mm 9 mps 744 mmHg 66%
    05:00 +18°C° 0 mm 9 mps 744 mmHg 66%
    06:00 +18°C° 0 mm 8 mps 744 mmHg 67%
    07:00 +20°C° 0 mm 8 mps 745 mmHg 62%
    08:00 +21°C° 0 mm 8 mps 745 mmHg 57%
    09:00 +22°C° 0 mm 8 mps 745 mmHg 53%
    10:00 +22°C° 0 mm 8 mps 745 mmHg 50%
    11:00 +23°C° 0 mm 8 mps 745 mmHg 48%
    12:00 +24°C° 0 mm 7 mps 745 mmHg 46%
    13:00 +23°C° 0 mm 7 mps 745 mmHg 47%
    14:00 +23°C° 0 mm 8 mps 745 mmHg 49%
    15:00 +23°C° 0 mm 8 mps 744 mmHg 50%
    16:00 +22°C° 0 mm 7 mps 745 mmHg 54%
    17:00 +21°C° 0 mm 7 mps 745 mmHg 57%
    18:00 +20°C° 0 mm 6 mps 745 mmHg 60%
    19:00 +20°C° 0 mm 6 mps 745 mmHg 60%
    20:00 +20°C° 0 mm 5 mps 745 mmHg 60%
    21:00 +19°C° 0 mm 4 mps 745 mmHg 60%
    22:00 +19°C° 0 mm 4 mps 745 mmHg 60%
    23:00 +19°C° 0 mm 3 mps 744 mmHg 60%

    27 September, Wednesday

    Time Temperature Precipitation Wind Pressure Humidity
    00:00 +19°C° 0 mm 3 mps 744 mmHg 60%
    01:00 +19°C° 0 mm 2 mps 744 mmHg 61%
    02:00 +19°C° 0 mm 2 mps 743 mmHg 61%
    03:00 +19°C° 0 mm 2 mps 743 mmHg 61%
    04:00 +19°C° 0 mm 2 mps 743 mmHg 61%
    05:00 +19°C° 0 mm 2 mps 743 mmHg 60%
    06:00 +20°C° 0 mm 1 mps 743 mmHg 60%
    07:00 +19°C° 0 mm 2 mps 743 mmHg 58%
    08:00 +20°C° 0 mm 2 mps 743 mmHg 57%
    09:00 +20°C° 0 mm 2 mps 743 mmHg 55%
    10:00 +21°C° 0 mm 2 mps 743 mmHg 54%
    11:00 +21°C° 0 mm 2 mps 743 mmHg 53%
    12:00 +21°C° 0 mm 3 mps 743 mmHg 52%
    13:00 +22°C° 0 mm 4 mps 743 mmHg 52%
    14:00 +22°C° 0 mm 5 mps 743 mmHg 51%
    15:00 +22°C° 0 mm 5 mps 743 mmHg 51%
    16:00 +22°C° 0 mm 6 mps 743 mmHg 53%
    17:00 +21°C° 0 mm 7 mps 743 mmHg 56%
    18:00 +20°C° 0 mm 8 mps 743 mmHg 59%
    19:00 +20°C° 0 mm 7 mps 744 mmHg 59%
    20:00 +20°C° 0 mm 7 mps 744 mmHg 59%
    21:00 +18°C° 0 mm 7 mps 744 mmHg 59%
    22:00 +18°C° 0.1 mm 7 mps 744 mmHg 62%
    23:00 +18°C° 0.1 mm 8 mps 744 mmHg 65%

    28 September, Thursday

    Time Temperature Precipitation Wind Pressure Humidity
    00:00 +18°C° 0.1 mm 8 mps 744 mmHg 69%
    01:00 +17°C° 0.1 mm 8 mps 744 mmHg 71%
    02:00 +17°C° 0.1 mm 7 mps 744 mmHg 73%
    03:00 +17°C° 0.1 mm 7 mps 744 mmHg 75%
    04:00 +17°C° 0.2 mm 7 mps 744 mmHg 74%
    05:00 +17°C° 0.2 mm 7 mps 744 mmHg 74%
    06:00 +17°C° 0.2 mm 7 mps 745 mmHg 73%
    07:00 +17°C° 0.3 mm 7 mps 745 mmHg 73%
    08:00 +17°C° 0.3 mm 7 mps 745 mmHg 72%
    09:00 +17°C° 0.3 mm 7 mps 746 mmHg 72%
    10:00 +17°C° 0.3 mm 7 mps 746 mmHg 72%
    11:00 +17°C° 0.3 mm 7 mps 746 mmHg 72%
    12:00 +16°C° 0.3 mm 7 mps 746 mmHg 73%
    13:00 +16°C° 0.2 mm 6 mps 746 mmHg 74%
    14:00 +16°C° 0.2 mm 6 mps 746 mmHg 75%
    15:00 +16°C° 0.2 mm 6 mps 746 mmHg 76%
    16:00 +16°C° 0.2 mm 6 mps 746 mmHg 76%
    17:00 +16°C° 0.2 mm 6 mps 746 mmHg 76%
    18:00 +16°C° 0.2 mm 6 mps 747 mmHg 76%
    19:00 +16°C° 0.1 mm 6 mps 747 mmHg 75%
    20:00 +16°C° 0.1 mm 6 mps 747 mmHg 73%
    21:00 +16°C° 0.1 mm 5 mps 747 mmHg 72%
    22:00 +16°C° 0.1 mm 5 mps 746 mmHg 70%
    23:00 +16°C° 0.1 mm 5 mps 746 mmHg 69%
    Show more